#timestamp,LO_Frequency,Hit 
1504130415.5,286047002.7,N
1504130435.3,286047003.5,N
1504130455.1,286047006.3,N
1504130475.9,286047008.7,P
1504130495.7,286047004.8,N
1504130515.5,286047005.1,N
1504130535.4,286047006.2,N
1504130555.2,286047010.7,P
1504130575.0,286047005.8,N
1504130595.5,286047003.1,N
1504130615.3,286047004.6,N
1504130635.2,286047008.0,P
1504130655.9,286047003.3,P
1504130675.7,286047007.4,P
1504130695.6,286047006.9,P
1504130715.4,286046998.7,P
1504130735.2,286046998.6,N
1504130755.1,286046997.3,N
1504130756.0,286046997.3,N
1504130775.8,286046995.5,N
1504130795.6,286046995.6,N
1504130815.4,286046997.8,N
1504130835.3,286046997.4,N
1504130855.1,286046999.1,N
1504130875.8,286046996.6,N
1504130895.7,286046995.1,N
1504130915.5,286046996.4,N
1504130935.3,286046994.5,N
1504130955.2,286046993.7,N
1504130975.9,286046994.9,N
1504130995.7,286046999.5,N
1504131015.6,286046999.3,N
1504131035.4,286046997.4,N
1504131055.2,286046996.3,N
1504131075.1,286046994.5,N
1504131076.0,286046994.5,N
1504131095.8,286046996.2,N
1504131115.6,286046996.1,N
1504131135.4,286046995.4,N
1504131155.3,286046992.3,N
1504131175.1,286046990.2,P
1504131195.9,286046995.1,N
1504131215.7,286046998.2,N
1504131235.5,286046999.9,N
1504131255.4,286046998.1,N
1504131275.2,286046997.2,N
1504131295.0,286046997.1,N
1504131295.9,286046997.1,N
1504131315.7,286046996.9,N
1504131335.6,286046999.6,N
1504131355.4,286046999.1,N
1504131375.2,286047002.0,N
1504131395.1,286047006.9,N
1504131396.0,286047006.9,N
1504131415.8,286047004.7,N
1504131435.6,286047007.1,N
1504131455.5,286047008.7,N
1504131475.3,286047009.2,N
1504131495.1,286047008.8,N
1504131515.9,286047009.2,N
1504131535.7,286047006.1,N
1504131555.5,286047005.3,N
1504131575.4,286047005.1,N
1504131595.2,286047007.5,N
1504131615.0,286047005.4,N
1504131615.9,286047005.4,N
1504131635.8,286047006.6,N
1504131655.6,286047004.8,N
1504131675.4,286047005.4,N
1504131695.2,286047005.6,N
1504131715.1,286047002.5,N
1504131716.0,286047002.5,N
1504131735.8,286047001.6,N
1504131755.6,286046999.9,N
1504131775.5,286047003.5,N
1504131795.3,286047003.5,N
1504131815.1,286047004.8,N
1504131835.9,286047003.4,N
1504131855.7,286047003.1,N
1504131875.5,286047006.2,N
1504131895.4,286047006.0,N
1504131915.2,286047001.3,N
1504131935.0,286047001.5,N
1504131935.9,286047001.5,N
1504131955.8,286046998.5,N
1504131975.6,286046998.6,N
1504131995.4,286047001.0,N
1504132015.3,286046998.3,N
1504132035.1,286047000.6,N
1504132036.0,286047000.6,N
1504132055.8,286047002.6,N
1504132075.7,286047005.3,N
1504132095.5,286047009.1,P
1504132115.3,286046999.8,N
1504132135.2,286047002.3,N
1504132155.9,286047002.5,N
1504132175.7,286047002.0,N
1504132195.6,286046999.7,N
1504132215.4,286047000.9,N
1504132235.2,286047000.7,N
1504132255.0,286046998.6,N
1504132256.0,286046998.6,N
1504132275.8,286047001.2,N
1504132295.6,286047001.1,N
1504132315.4,286047001.5,N
1504132335.3,286047005.6,N
1504132355.1,286047003.3,N
1504132375.8,286047003.3,N
1504132395.7,286047001.3,N
1504132415.5,286047002.4,N
1504132435.3,286047001.3,N
1504132455.2,286047004.0,N
1504132475.9,286047005.5,N
1504132495.8,286047004.6,N
1504132515.7,286047005.1,N
1504132535.5,286047004.9,N
1504132555.3,286047004.6,N
1504132575.2,286047008.5,P
1504132595.9,286047007.3,N
1504132615.7,286047006.7,N
1504132635.6,286047006.2,N
1504132655.4,286047009.0,P
1504132675.2,286047001.9,N
1504132695.1,286047001.2,N
1504132696.0,286047001.2,N
1504132715.8,286047002.6,N
1504132735.6,286047000.3,N
1504132755.5,286047001.2,N
1504132775.3,286047001.2,N
1504132795.1,286047001.2,N
1504132815.9,286047002.1,N
1504132835.7,286047002.8,N
1504132855.5,286047000.3,N
1504132875.3,286047001.8,N
1504132895.2,286047001.8,N
1504132915.0,286047001.9,N
1504132915.9,286047001.9,N
1504132935.7,286047001.8,N
1504132955.6,286047001.8,N
1504132975.4,286047003.8,N
1504132995.2,286047003.7,N
1504133015.1,286047000.2,N
1504133016.0,286047000.2,N
1504133035.8,286047000.1,N
1504133055.6,286047002.2,N
1504133075.5,286047001.7,N
1504133095.3,286047002.3,N
1504133115.1,286047002.8,N
1504133135.9,286047001.9,N
1504133155.7,286047002.7,N
1504133175.5,286047001.9,N
1504133195.4,286047002.0,N
1504133215.2,286047001.3,N
1504133235.0,286047004.3,P
1504133235.9,286047004.3,P
1504133255.8,286047000.4,N
1504133275.6,286047000.9,N
1504133295.4,286046998.2,N
1504133315.3,286047000.7,N
1504133335.1,286046998.2,N
1504133336.0,286046998.2,N
1504133355.8,286047000.2,N
1504133375.7,286047000.4,N
1504133395.5,286047002.6,N
1504133415.3,286047004.4,N
1504133435.1,286047001.6,N
1504133455.9,286047003.1,N
1504133475.7,286047005.1,N
1504133495.6,286047007.0,P
1504133515.4,286047003.5,N
1504133535.2,286047002.5,N
1504133555.0,286046999.3,N
1504133556.0,286046999.3,N
1504133575.8,286046998.3,N
1504133595.6,286046999.1,N
1504133615.4,286046994.9,N
1504133635.3,286046993.8,N
1504133655.1,286046995.5,N
1504133675.8,286046996.1,N
1504133695.7,286046993.9,N
1504133715.5,286046991.8,N
1504133735.3,286046994.8,N
1504133755.2,286046991.7,N
1504133775.9,286046992.2,N
1504133795.7,286046994.4,N
1504133815.6,286046994.5,N
1504133835.4,286046996.6,N
1504133855.2,286046999.3,N
1504133875.1,286046998.0,N
1504133876.0,286046998.0,N
1504133895.8,286046997.8,N
1504133915.6,286046997.1,N
1504133935.5,286046995.6,N
1504133955.3,286046990.1,N
1504133975.1,286046993.4,N
1504133995.9,286046996.8,N
